Regional Weather Roundup
Issued by NWS

Home | Current Version | Previous Version | Text Only | Print | Product List | Glossary On
Versions: 1 2 3 4 5 6 7 8 9 10 11 12 13 14 15 16 17 18 19 20 21 22 23 24 25
000
ASUS44 KBMX 180810
RWRAL

ALABAMA REGIONAL WEATHER ROUNDUP
NATIONAL WEATHER SERVICE BIRMINGHAM AL
200 AM CST SUN FEB 18 2018

NOTE: "FAIR" INDICATES FEW OR NO CLOUDS BELOW 12,000 FEET
WITH NO SIGNIFICANT WEATHER AND/OR OBSTRUCTIONS TO VISIBILITY.

THE REMARK "TC" DENOTES TEMPERATURE IN DEGREES CELSIUS.

ALZ001>011-014-016>018-020-180900-
NORTH ALABAMA

CITY           SKY/WX    TMP DP  RH WIND       PRES   REMARKS
MUSCLE SHOALS  CLOUDY    46  37  71 NE12      30.27R
HUNTSVILLE     CLOUDY    48  42  80 NE13      30.25R
DECATUR        CLOUDY    47  39  74 N14       30.26R
HALEYVILLE     CLOUDY    45  42  89 NE8G17    30.25R
GADSDEN        CLOUDY    50  48  93 N7        30.23R
$$

ALZ012-013-022-023-030>036-040>044-180900-
WEST CENTRAL ALABAMA

CITY           SKY/WX    TMP DP  RH WIND       PRES   REMARKS
TUSCALOOSA     CLOUDY    51  49  92 NE12      30.22S
DEMOPOLIS      LGT RAIN  52  50  92 N6        30.20S
$$

ALZ015-024>026-033>036-041>044-180900-
CENTRAL ALABAMA

CITY           SKY/WX    TMP DP  RH WIND       PRES   REMARKS
BIRMINGHAM     CLOUDY    49  46  90 N8        30.23S
MONTGOMERY     CLOUDY    62  58  86 NW8       30.16S
SHELBY CO ARPT CLOUDY    53  51  93 VRB6      30.19S
MAXWELL AFB    CLOUDY    61  57  86 NW7       30.15S
GREENVILLE     CLOUDY    63  57  81 N8        30.15R
SELMA          CLOUDY    59  54  82 NW9       30.17S
PRATTVILLE     CLOUDY    59  57  93 NW3       30.16S
BESSEMER       CLOUDY    49  48  97 N13       30.21S
TALLADEGA      CLOUDY    51  50  95 N6        30.22R
PELL CITY      CLOUDY    52  50  93 N8        30.22R
MARION         DRIZZLE   54  53  99 N6        30.18S
SYLACAUGA      CLOUDY    54  54 100 N6        30.19S
$$

ALZ019-021-028-029-037-038-045>048-180900-
EAST CENTRAL ALABAMA

CITY           SKY/WX    TMP DP  RH WIND       PRES   REMARKS
ANNISTON       CLOUDY    52  48  86 N6        30.20R
ALEXANDER CITY LGT RAIN  56  56 100 N9        30.16F
AUBURN         CLOUDY    61  59  93 NW7       30.16S
$$

ALZ051>064-180900-
SOUTHWEST ALABAMA

CITY           SKY/WX    TMP DP  RH WIND       PRES   REMARKS
MOBILE         CLOUDY    63  62  97 N5        30.15R
BROOKLEY FIELD FAIR      60  60 100 CALM      30.14S
EVERGREEN      CLOUDY    65  58  78 NW3       30.15S
$$

ALZ049-050-065>069-180900-
SOUTHEAST ALABAMA

CITY           SKY/WX    TMP DP  RH WIND       PRES   REMARKS
DOTHAN         CLOUDY    66  66 100 SW10      30.18R
OZARK          FOG       64  64 100 W3        30.14S VSB 3/8
TROY           CLOUDY    64  61  90 N3        30.15S
EUFAULA        CLOUDY    64  63  96 CALM      30.13S
$$




USA.gov is the U.S. government's official web portal to all federal, state and local government web resources and services.